WA7SB-7 Weather Reports


Display with metric or nautical units.
time (UTC)temp
F
wind
direction
speed
MPH
gust
MPH
rain 1hr
in
rain 24hr
in
rain mn
in
humidity
%
barometer
mb
20260902234517 59 252 1.0 3.0 0.00 0.82 0.80 95 1008.6
20260902234421 59 221 0.0 3.0 0.00 0.82 0.80 95 1008.6
20260902234022 59 68 1.0 3.0 0.00 0.82 0.80 95 1008.6
20260902233927 59 38 1.0 2.0 0.00 0.82 0.80 95 1008.5
20260902233530 59 71 1.0 2.0 0.00 0.82 0.80 95 1008.5
20260902233431 59 208 1.0 2.0 0.00 0.82 0.80 95 1008.5
20260902233032 59 250 0.0 4.0 0.00 0.82 0.80 95 1008.4
20260902232919 59 293 0.0 4.0 0.00 0.82 0.80 95 1008.5
20260902232522 59 60 0.0 4.0 0.00 0.82 0.80 95 1008.4
20260902232425 59 250 1.0 4.0 0.00 0.82 0.80 95 1008.4
20260902232031 58 262 1.0 2.0 0.00 0.82 0.80 95 1008.4
20260902231912 58 330 0.0 2.0 0.01 0.82 0.80 95 1008.2
20260902231517 58 319 0.0 2.0 0.01 0.82 0.80 95 1008.2
20260902231419 58 303 1.0 2.0 0.01 0.82 0.80 95 1008.2
20260902231023 58 9 1.0 3.0 0.01 0.82 0.80 95 1008.1
20260902230925 58 9 1.0 3.0 0.01 0.82 0.80 95 1008.2
20260902230532 58 57 1.0 3.0 0.01 0.82 0.80 95 1008.1
20260902230413 58 30 1.0 3.0 0.01 0.82 0.80 95 1008.2
20260902230027 58 253 0.0 2.0 0.02 0.82 0.80 95 1008.1
20260902225928 58 250 1.0 2.0 0.02 0.82 0.80 95 1008.1
20260902225531 58 103 1.0 2.0 0.02 0.82 0.80 95 1008.0
20260902225412 58 37 0.0 1.0 0.02 0.82 0.80 95 1008.0
20260902225017 58 103 0.0 3.0 0.02 0.82 0.80 95 1008.0
20260902224917 58 106 0.0 3.0 0.02 0.82 0.80 95 1008.0
20260902224520 58 67 1.0 3.0 0.03 0.82 0.80 95 1007.9
20260902224419 58 68 1.0 3.0 0.03 0.82 0.80 95 1007.9
20260902224022 58 303 1.0 4.0 0.03 0.82 0.80 95 1008.0
20260902223924 58 304 1.0 4.0 0.03 0.82 0.80 95 1007.9
20260902223531 58 55 1.0 4.0 0.03 0.82 0.80 95 1007.8
20260902223431 58 68 1.0 4.0 0.03 0.82 0.80 95 1007.9
20260902223016 58 335 1.0 5.0 0.03 0.82 0.80 95 1007.7
20260902222919 58 67 1.0 5.0 0.03 0.82 0.80 95 1007.8
20260902222523 58 359 1.0 5.0 0.03 0.82 0.80 95 1007.8
20260902222422 58 333 1.0 5.0 0.03 0.82 0.80 95 1007.8
20260902222026 58 266 0.0 5.0 0.02 0.81 0.79 95 1007.7
20260902221929 58 330 1.0 5.0 0.02 0.81 0.79 95 1007.8
20260902221515 58 294 1.0 6.0 0.02 0.81 0.79 95 1007.8
20260902221416 58 169 1.0 6.0 0.02 0.81 0.79 95 1007.8
20260902221015 58 206 0.0 6.0 0.02 0.81 0.79 95 1007.6
20260902220921 57 268 1.0 6.0 0.02 0.81 0.79 95 1007.6
20260902220524 57 20 1.0 2.0 0.02 0.81 0.79 95 1007.7
20260902220429 57 302 1.0 2.0 0.02 0.81 0.79 95 1007.7
20260902220019 58 122 1.0 2.0 0.01 0.80 0.78 96 1007.6
20260902215918 58 293 0.0 2.0 0.01 0.80 0.78 95 1007.7
20260902215522 58 349 1.0 2.0 0.01 0.80 0.78 95 1007.6
20260902215422 58 316 1.0 2.0 0.01 0.80 0.78 96 1007.6
20260902215025 58 52 0.0 3.0 0.01 0.80 0.78 96 1007.6
20260902214925 58 52 0.0 3.0 0.01 0.80 0.78 96 1007.5
20260902214529 57 66 1.0 6.0 0.01 0.79 0.77 96 1007.6
20260902214413 57 326 1.0 6.0 0.01 0.79 0.77 96 1007.6
20260902214018 57 314 1.0 6.0 0.01 0.79 0.77 96 1007.5
20260902213916 57 109 2.0 6.0 0.01 0.79 0.77 96 1007.5
20260902213521 57 300 1.0 5.0 0.02 0.79 0.77 96 1007.6
20260902213418 57 89 1.0 5.0 0.02 0.79 0.77 96 1007.5
20260902213022 57 285 2.0 5.0 0.02 0.79 0.77 95 1007.5
20260902212923 57 52 1.0 5.0 0.03 0.79 0.77 96 1007.5
20260902212525 57 326 1.0 4.0 0.04 0.79 0.77 95 1007.5
20260902212427 57 206 1.0 4.0 0.04 0.79 0.77 95 1007.5
20260902212033 57 79 1.0 4.0 0.05 0.79 0.77 95 1007.5
20260902211914 57 46 1.0 4.0 0.06 0.79 0.77 96 1007.4
20260902211517 57 109 1.0 5.0 0.07 0.79 0.77 95 1007.4
20260902211419 57 49 1.0 5.0 0.07 0.79 0.77 95 1007.4
20260902211023 57 54 2.0 7.0 0.08 0.79 0.77 95 1007.4
20260902210924 57 39 2.0 7.0 0.08 0.79 0.77 95 1007.4
20260902210529 57 286 2.0 7.0 0.11 0.79 0.77 95 1007.4
20260902210427 57 275 2.0 7.0 0.12 0.79 0.77 95 1007.4
20260902210015 57 342 2.0 6.0 0.13 0.79 0.77 95 1007.4
20260902205918 57 75 2.0 6.0 0.13 0.79 0.77 95 1007.4
20260902205516 57 320 1.0 4.0 0.14 0.79 0.77 95 1007.3
20260902205421 57 41 1.0 4.0 0.14 0.79 0.77 95 1007.3
20260902205021 57 86 2.0 4.0 0.14 0.79 0.77 95 1007.2
20260902204924 57 70 2.0 4.0 0.14 0.79 0.77 95 1007.2
20260902204529 57 11 1.0 7.0 0.14 0.78 0.76 95 1007.2
20260902204413 57 99 2.0 12.0 0.14 0.78 0.76 95 1007.2
20260902204018 57 49 3.0 12.0 0.15 0.78 0.76 95 1007.2
20260902203921 57 32 2.0 12.0 0.15 0.78 0.76 95 1007.2
20260902203527 57 107 4.0 12.0 0.15 0.77 0.75 95 1007.0
20260902203425 57 120 3.0 12.0 0.15 0.77 0.75 95 1007.3
20260902203029 57 89 3.0 10.0 0.14 0.76 0.74 95 1007.1
20260902202913 57 68 3.0 10.0 0.15 0.76 0.74 95 1007.3
20260902202520 57 64 4.0 10.0 0.14 0.75 0.73 95 1007.1
20260902202423 57 276 4.0 10.0 0.14 0.75 0.73 95 1007.1
20260902202030 56 44 3.0 10.0 0.14 0.74 0.72 95 1006.9
20260902201932 56 293 3.0 10.0 0.14 0.74 0.72 95 1007.0
20260902201516 56 269 4.0 13.0 0.13 0.72 0.70 95 1006.9
20260902201419 56 63 3.0 13.0 0.12 0.71 0.69 95 1006.7
20260902201023 56 37 5.0 13.0 0.13 0.71 0.69 95 1006.9
20260902200923 56 31 5.0 12.0 0.13 0.71 0.69 95 1006.7
20260902200527 56 304 3.0 11.0 0.10 0.67 0.65 95 1006.8
20260902200428 56 322 3.0 11.0 0.10 0.67 0.65 95 1006.8
20260902200024 56 324 4.0 15.0 0.09 0.66 0.64 95 1006.9
20260902195925 56 295 4.0 15.0 0.10 0.66 0.64 95 1006.8
20260902195529 56 245 5.0 15.0 0.09 0.65 0.63 95 1006.8
20260902195429 57 11 7.0 15.0 0.09 0.65 0.63 95 1006.6
20260902195016 57 310 4.0 13.0 0.10 0.65 0.63 95 1006.8
20260902194918 57 136 4.0 11.0 0.09 0.64 0.62 95 1006.6
20260902194424 56 292 5.0 11.0 0.09 0.64 0.62 95 1006.4
20260902194024 56 44 4.0 11.0 0.09 0.63 0.61 95 1006.4
20260902193930 56 77 4.0 11.0 0.09 0.63 0.61 95 1006.3
20260902193533 56 269 4.0 16.0 0.09 0.62 0.60 95 1006.4
20260902193418 56 56 4.0 16.0 0.09 0.62 0.60 95 1006.2
20260902192918 57 159 4.0 12.0 0.09 0.61 0.59 95 1006.2
20260902192520 57 96 5.0 11.0 0.09 0.61 0.59 95 1006.3
20260902192422 57 117 5.0 11.0 0.11 0.61 0.59 95 1006.2
20260902192026 57 319 3.0 12.0 0.10 0.60 0.58 95 1006.2
20260902191929 57 132 4.0 12.0 0.11 0.60 0.58 95 1006.1
20260902191533 57 213 4.0 14.0 0.11 0.59 0.57 95 1006.1
20260902191415 57 117 3.0 15.0 0.12 0.59 0.57 95 1006.1
20260902190921 57 247 4.0 17.0 0.12 0.58 0.56 95 1006.2
20260902190526 57 97 4.0 17.0 0.14 0.57 0.55 95 1006.1
20260902190427 57 55 3.0 14.0 0.14 0.57 0.55 95 1006.0
20260902190019 57 292 4.0 11.0 0.14 0.56 0.54 95 1006.1
20260902185918 57 309 2.0 7.0 0.14 0.56 0.54 95 1006.0
20260902185518 57 11 2.0 8.0 0.15 0.56 0.54 95 1006.0
20260902185423 57 323 2.0 8.0 0.15 0.56 0.54 95 1006.0
20260902185021 57 63 2.0 8.0 0.15 0.55 0.53 95 1006.0
20260902184928 57 157 3.0 8.0 0.16 0.55 0.53 95 1005.9
20260902184529 57 128 3.0 7.0 0.17 0.55 0.53 95 1005.9
20260902184414 57 70 3.0 7.0 0.18 0.55 0.53 95 1006.0
20260902184014 57 122 3.0 7.0 0.18 0.54 0.52 95 1006.0
20260902183915 57 249 3.0 7.0 0.17 0.53 0.51 95 1006.0
20260902183519 57 60 1.0 7.0 0.18 0.53 0.51 95 1005.8
20260902183419 57 293 2.0 7.0 0.17 0.52 0.50 95 1005.8
20260902183023 57 82 2.0 7.0 0.17 0.52 0.50 94 1005.8
20260902182925 57 62 2.0 7.0 0.18 0.52 0.50 94 1005.8
20260902182530 57 302 2.0 6.0 0.16 0.50 0.48 94 1005.7
20260902182413 57 58 1.0 6.0 0.16 0.50 0.48 94 1005.8
20260902182016 57 15 2.0 6.0 0.15 0.49 0.47 94 1005.8
20260902181919 57 129 2.0 6.0 0.15 0.49 0.47 94 1005.8
20260902181524 57 89 0.0 3.0 0.15 0.48 0.46 94 1005.7
20260902181426 57 86 1.0 3.0 0.14 0.47 0.45 94 1005.7
20260902181031 57 201 1.0 3.0 0.13 0.46 0.44 94 1005.6
20260902180932 57 214 0.0 3.0 0.12 0.45 0.43 94 1005.7
20260902180518 57 100 1.0 3.0 0.10 0.43 0.41 94 1005.7
20260902180417 57 331 1.0 3.0 0.10 0.43 0.41 94 1005.7
20260902180033 57 255 1.0 5.0 0.09 0.42 0.40 94 1005.6
20260902175916 57 254 1.0 5.0 0.09 0.42 0.40 94 1005.7
20260902175524 57 7 0.0 5.0 0.09 0.41 0.39 94 1005.6
20260902175426 57 337 1.0 5.0 0.09 0.41 0.39 94 1005.7
20260902175033 57 134 2.0 3.0 0.09 0.40 0.38 94 1005.4
20260902174916 57 103 1.0 3.0 0.08 0.39 0.37 94 1005.6
20260902174516 57 238 1.0 3.0 0.08 0.38 0.36 94 1005.5
20260902174419 57 269 0.0 3.0 0.07 0.37 0.35 94 1005.5
20260902174023 57 45 1.0 4.0 0.06 0.36 0.34 94 1005.4
20260902173925 57 75 1.0 4.0 0.07 0.36 0.34 94 1005.5
20260902173531 57 39 1.0 6.0 0.07 0.35 0.33 94 1005.4
20260902173412 57 316 0.0 6.0 0.07 0.35 0.33 94 1005.4
20260902173020 57 67 1.0 6.0 0.08 0.34 0.32 94 1005.4
20260902172923 57 296 1.0 6.0 0.08 0.34 0.32 94 1005.5
20260902172527 57 275 1.0 4.0 0.10 0.34 0.32 94 1005.4
20260902172433 57 301 1.0 4.0 0.10 0.34 0.32 94 1005.3
20260902172033 57 275 0.0 3.0 0.13 0.34 0.32 94 1005.3
20260902171917 57 275 0.0 3.0 0.14 0.34 0.32 94 1005.3
20260902171515 57 236 1.0 3.0 0.14 0.33 0.31 94 1005.1
20260902171421 57 301 1.0 3.0 0.14 0.33 0.31 94 1005.1
20260902171023 57 2 1.0 5.0 0.15 0.33 0.31 94 1005.2
20260902170923 57 1 1.0 5.0 0.16 0.33 0.31 94 1005.2
20260902170527 57 146 2.0 5.0 0.17 0.33 0.31 94 1005.3
20260902170426 57 300 1.0 5.0 0.17 0.33 0.31 94 1005.3
20260902170022 57 91 1.0 5.0 0.18 0.33 0.31 94 1005.2
20260902165924 57 31 1.0 5.0 0.18 0.33 0.31 94 1005.1
20260902165531 57 284 1.0 5.0 0.18 0.32 0.30 94 1005.2
20260902165413 57 241 1.0 4.0 0.18 0.32 0.30 94 1005.2
20260902165016 57 302 1.0 4.0 0.18 0.31 0.29 94 1005.2
20260902164916 57 142 1.0 4.0 0.18 0.31 0.29 94 1005.3
20260902164520 57 311 1.0 2.0 0.18 0.30 0.28 94 1005.2
20260902164421 57 303 1.0 2.0 0.18 0.30 0.28 94 1005.3
20260902164025 57 288 1.0 4.0 0.17 0.29 0.27 94 1005.3
20260902163928 57 217 1.0 4.0 0.17 0.29 0.27 94 1005.4
20260902163515 57 115 1.0 4.0 0.17 0.28 0.26 94 1005.5
20260902163416 57 303 1.0 3.0 0.17 0.28 0.26 94 1005.6
20260902163022 57 258 0.0 3.0 0.15 0.26 0.24 94 1005.5
20260902162924 57 220 0.0 3.0 0.15 0.26 0.24 94 1005.6
20260902162528 57 318 1.0 3.0 0.14 0.24 0.22 94 1005.8
20260902162429 57 60 1.0 3.0 0.13 0.23 0.21 94 1005.9
20260902162018 57 15 1.0 3.0 0.11 0.21 0.19 93 1006.2
20260902161918 57 326 1.0 3.0 0.10 0.20 0.18 93 1006.1
20260902161522 57 215 1.0 3.0 0.10 0.19 0.17 93 1006.2
20260902161424 57 335 0.0 2.0 0.10 0.19 0.17 93 1006.1
20260902161029 57 51 0.0 2.0 0.08 0.17 0.15 93 1006.2
20260902160931 57 304 0.0 1.0 0.08 0.17 0.15 93 1006.2
20260902160518 57 305 0.0 2.0 0.07 0.16 0.14 93 1006.2
20260902160416 57 304 0.0 2.0 0.06 0.15 0.13 93 1006.2
20260902160027 57 110 0.0 2.0 0.07 0.15 0.13 93 1006.2
20260902155931 57 306 1.0 2.0 0.06 0.14 0.12 93 1006.3
20260902155533 57 328 0.0 1.0 0.06 0.14 0.12 93 1006.3
20260902155421 57 15 0.0 1.0 0.06 0.14 0.12 93 1006.3
20260902155021 57 15 0.0 1.0 0.06 0.13 0.11 93 1006.3
20260902154921 57 309 0.0 1.0 0.06 0.13 0.11 93 1006.4
20260902154525 57 4 0.0 1.0 0.06 0.12 0.10 93 1006.4
20260902154427 57 4 0.0 1.0 0.06 0.12 0.10 93 1006.4
20260902154030 57 4 0.0 3.0 0.07 0.12 0.10 93 1006.4
20260902153932 57 4 0.0 3.0 0.06 0.11 0.09 93 1006.4
20260902153521 57 299 0.0 4.0 0.06 0.11 0.09 93 1006.6
20260902153422 57 300 0.0 4.0 0.07 0.11 0.09 93 1006.5
20260902153026 57 310 1.0 4.0 0.07 0.11 0.09 92 1006.5
20260902152928 57 65 1.0 4.0 0.07 0.10 0.08 92 1006.6
20260902152532 57 13 1.0 2.0 0.07 0.10 0.08 92 1006.6
20260902152412 57 116 1.0 2.0 0.07 0.10 0.08 92 1006.6
20260902152020 57 44 0.0 1.0 0.08 0.10 0.08 92 1006.6
20260902151922 57 43 0.0 1.0 0.08 0.10 0.08 92 1006.6
20260902151529 57 44 0.0 1.0 0.07 0.09 0.07 92 1006.7
20260902151432 57 44 0.0 1.0 0.07 0.09 0.07 92 1006.7
20260902151015 57 44 0.0 0.0 0.07 0.09 0.07 92 1006.8
20260902150918 57 44 0.0 0.0 0.07 0.09 0.07 92 1006.8
20260902150522 57 44 0.0 0.0 0.07 0.09 0.07 91 1006.7
20260902150424 57 44 0.0 0.0 0.07 0.09 0.07 91 1006.7
20260902150020 58 44 0.0 0.0 0.06 0.08 0.06 91 1006.8
20260902145528 58 44 0.0 1.0 0.06 0.08 0.06 90 1006.8
20260902145429 58 44 0.0 1.0 0.06 0.08 0.06 90 1006.8
20260902145016 58 44 0.0 1.0 0.05 0.07 0.05 90 1006.8
20260902144919 58 44 0.0 1.0 0.05 0.07 0.05 90 1006.8
20260902144523 58 44 1.0 2.0 0.04 0.06 0.04 89 1006.8
20260902144425 58 44 1.0 2.0 0.04 0.06 0.04 89 1006.8
20260902144030 58 321 0.0 5.0 0.03 0.05 0.03 88 1006.8
20260902143932 58 321 0.0 5.0 0.03 0.05 0.03 88 1006.8
20260902143519 59 86 1.0 5.0 0.02 0.04 0.02 87 1006.7
20260902143420 59 77 1.0 5.0 0.02 0.04 0.02 87 1006.7
20260902143021 59 56 0.0 4.0 0.01 0.03 0.01 86 1006.7
20260902142925 59 146 0.0 4.0 0.01 0.03 0.01 86 1006.7
20260902142527 60 146 1.0 4.0 0.01 0.03 0.01 83 1006.7
20260902142431 60 147 1.0 5.0 0.01 0.03 0.01 83 1006.8
20260902142031 60 306 1.0 5.0 0.00 0.02 0.00 82 1006.7
20260902141917 60 306 1.0 5.0 0.00 0.02 0.00 80 1006.7
20260902141519 61 326 1.0 8.0 0.00 0.02 0.00 79 1006.8
20260902141417 61 112 1.0 8.0 0.00 0.02 0.00 79 1006.8
20260902141021 61 288 3.0 8.0 0.00 0.02 0.00 78 1006.6
20260902140921 61 20 3.0 8.0 0.00 0.02 0.00 78 1006.7
20260902140525 61 285 2.0 4.0 0.00 0.02 0.00 78 1006.7
20260902140424 61 295 1.0 6.0 0.00 0.02 0.00 78 1006.7
20260902140020 61 165 1.0 8.0 0.00 0.02 0.00 79 1006.7
20260902135921 61 217 0.0 8.0 0.00 0.02 0.00 78 1006.8
20260902135526 61 98 3.0 8.0 0.00 0.02 0.00 79 1006.8
20260902135429 61 101 3.0 8.0 0.00 0.02 0.00 78 1006.7
20260902135015 60 56 2.0 6.0 0.00 0.02 0.00 80 1006.8
20260902134916 60 115 2.0 6.0 0.00 0.02 0.00 79 1006.8
20260902134522 60 352 1.0 13.0 0.00 0.02 0.00 80 1006.7
20260902134426 60 124 1.0 13.0 0.00 0.02 0.00 79 1006.9
20260902134032 60 21 3.0 13.0 0.00 0.02 0.00 79 1006.9
20260902133915 60 77 2.0 4.0 0.00 0.02 0.00 80 1006.9
20260902133523 60 302 1.0 11.0 0.00 0.02 0.00 80 1006.9
20260902133424 60 315 2.0 11.0 0.00 0.02 0.00 80 1006.9
20260902133029 60 278 1.0 11.0 0.00 0.02 0.00 80 1007.0
20260902132913 60 349 3.0 11.0 0.00 0.02 0.00 80 1007.0
20260902132520 60 113 3.0 10.0 0.00 0.02 0.00 80 1007.1
20260902132422 60 261 3.0 10.0 0.00 0.02 0.00 80 1007.0
20260902132027 60 84 2.0 5.0 0.00 0.02 0.00 81 1007.2
20260902131928 60 35 1.0 4.0 0.00 0.02 0.00 81 1007.2
20260902131533 60 70 2.0 5.0 0.00 0.02 0.00 81 1007.1
20260902131415 60 247 1.0 5.0 0.00 0.02 0.00 81 1007.1
20260902131022 60 259 2.0 9.0 0.00 0.02 0.00 81 1007.3
20260902130924 60 14 2.0 9.0 0.00 0.02 0.00 81 1007.3
20260902130529 60 285 2.0 9.0 0.00 0.02 0.00 81 1007.3
20260902130428 60 113 2.0 9.0 0.00 0.02 0.00 81 1007.4
20260902130018 60 39 2.0 7.0 0.00 0.02 0.00 82 1007.5
20260902125922 60 178 3.0 8.0 0.00 0.02 0.00 82 1007.5
20260902125522 60 236 2.0 12.0 0.00 0.02 0.00 82 1007.4
20260902125423 60 291 2.0 12.0 0.00 0.02 0.00 82 1007.5
20260902125029 59 316 3.0 12.0 0.00 0.02 0.00 83 1007.6
20260902124932 59 199 4.0 12.0 0.00 0.02 0.00 82 1007.6
20260902124528 59 294 2.0 13.0 0.00 0.02 0.00 83 1007.6
20260902124431 59 72 2.0 13.0 0.00 0.02 0.00 83 1007.7
20260902124020 59 53 1.0 13.0 0.00 0.02 0.00 84 1007.7
20260902123919 59 49 2.0 13.0 0.00 0.02 0.00 84 1007.7
20260902123524 59 314 2.0 6.0 0.00 0.02 0.00 85 1007.8
20260902123423 59 75 1.0 6.0 0.00 0.02 0.00 85 1007.9
20260902123023 59 354 1.0 9.0 0.00 0.02 0.00 85 1007.9
20260902122923 59 137 1.0 9.0 0.00 0.02 0.00 85 1007.9
20260902122528 59 173 1.0 9.0 0.00 0.02 0.00 84 1008.0
20260902122431 59 117 1.0 9.0 0.00 0.02 0.00 84 1008.1
20260902122018 60 250 2.0 7.0 0.00 0.02 0.00 83 1008.1
20260902121919 60 76 3.0 7.0 0.00 0.02 0.00 82 1008.1
20260902121523 60 100 2.0 8.0 0.00 0.02 0.00 81 1008.1
20260902121425 60 70 2.0 8.0 0.00 0.02 0.00 81 1008.2
20260902121027 60 81 3.0 9.0 0.00 0.02 0.00 81 1008.2
20260902120928 60 110 3.0 9.0 0.00 0.02 0.00 81 1008.1
20260902120532 60 52 3.0 11.0 0.00 0.02 0.00 80 1008.2
20260902120412 61 121 3.0 11.0 0.00 0.02 0.00 80 1008.3
20260902120029 61 137 4.0 15.0 0.00 0.02 0.00 79 1008.4
20260902115932 61 41 4.0 15.0 0.00 0.02 0.00 79 1008.3
20260902115516 61 300 4.0 15.0 0.00 0.02 0.00 77 1008.2
20260902115418 61 86 3.0 15.0 0.00 0.02 0.00 77 1008.2
20260902115021 61 139 3.0 14.0 0.00 0.02 0.00 78 1008.3
20260902114923 61 4 3.0 14.0 0.00 0.02 0.00 78 1008.4
20260902114521 61 274 4.0 14.0 0.00 0.02 0.00 77 1008.4
20260902114426 61 286 1.0 6.0 0.00 0.02 0.00 78 1008.3
20260902114027 61 283 1.0 5.0 0.00 0.02 0.00 79 1008.5
20260902113934 61 82 1.0 5.0 0.00 0.02 0.00 79 1008.4
20260902113532 61 320 2.0 6.0 0.00 0.02 0.00 78 1008.5
20260902113418 61 95 2.0 6.0 0.00 0.02 0.00 78 1008.4
20260902113019 61 301 1.0 6.0 0.00 0.02 0.00 80 1008.5
20260902112921 61 124 2.0 6.0 0.00 0.02 0.00 79 1008.5
20260902112523 61 289 1.0 5.0 0.00 0.02 0.00 79 1008.6
20260902112424 61 86 2.0 5.0 0.00 0.02 0.00 79 1008.5
20260902112029 61 252 2.0 11.0 0.00 0.02 0.00 78 1008.6
20260902111929 61 56 2.0 11.0 0.00 0.02 0.00 78 1008.7
20260902111530 61 71 4.0 11.0 0.00 0.02 0.00 78 1008.6
20260902111429 61 81 4.0 11.0 0.00 0.02 0.00 79 1008.7
20260902111032 61 350 3.0 11.0 0.00 0.02 0.00 79 1008.9
20260902110913 61 323 1.0 7.0 0.00 0.02 0.00 79 1008.9
20260902110516 61 127 1.0 7.0 0.00 0.02 0.00 80 1008.9
20260902110418 60 276 2.0 7.0 0.00 0.02 0.00 79 1008.9
20260902110032 60 104 1.0 8.0 0.00 0.02 0.00 80 1009.0
20260902105913 60 89 1.0 8.0 0.00 0.02 0.00 80 1008.9
20260902105516 60 296 1.0 8.0 0.00 0.02 0.00 81 1009.0
20260902105418 60 303 1.0 5.0 0.00 0.02 0.00 80 1009.0
20260902105021 60 113 1.0 7.0 0.00 0.02 0.00 80 1009.0
20260902104922 60 253 1.0 7.0 0.00 0.02 0.00 80 1009.1
20260902104526 60 13 1.0 8.0 0.00 0.02 0.00 81 1009.1
20260902104428 60 285 1.0 8.0 0.00 0.02 0.00 81 1009.2
20260902104032 60 283 3.0 10.0 0.00 0.02 0.00 81 1009.1
20260902103914 60 13 3.0 10.0 0.00 0.02 0.00 81 1009.2
20260902103518 60 84 4.0 10.0 0.00 0.02 0.00 82 1009.3
20260902103418 60 98 3.0 10.0 0.00 0.02 0.00 83 1009.3
20260902103021 60 222 2.0 11.0 0.00 0.02 0.00 83 1009.4
20260902102922 60 260 3.0 11.0 0.00 0.02 0.00 83 1009.4
20260902102522 59 108 3.0 11.0 0.00 0.02 0.00 84 1009.5
20260902102428 59 94 3.0 11.0 0.00 0.02 0.00 85 1009.6
20260902102025 59 101 1.0 5.0 0.00 0.02 0.00 86 1009.5
20260902101930 59 246 1.0 5.0 0.00 0.02 0.00 87 1009.5
20260902101529 59 269 1.0 5.0 0.00 0.02 0.00 86 1009.5
20260902101416 59 59 1.0 5.0 0.00 0.02 0.00 87 1009.5
20260902101017 59 306 1.0 2.0 0.00 0.02 0.00 87 1009.5
20260902100919 58 268 1.0 3.0 0.00 0.02 0.00 87 1009.5
20260902100522 58 127 0.0 3.0 0.00 0.02 0.00 88 1009.5
20260902100423 58 217 0.0 3.0 0.00 0.02 0.00 88 1009.5
20260902100018 59 319 0.0 2.0 0.00 0.02 0.00 87 1009.6
20260902095918 59 319 0.0 6.0 0.00 0.02 0.00 87 1009.6
20260902095521 59 21 0.0 6.0 0.00 0.02 0.00 87 1009.5
20260902095422 59 19 0.0 6.0 0.00 0.02 0.00 87 1009.6
20260902095026 59 58 1.0 5.0 0.00 0.02 0.00 87 1009.6
20260902094927 59 53 0.0 5.0 0.00 0.02 0.00 87 1009.7
20260902094529 59 34 2.0 5.0 0.00 0.02 0.00 87 1009.8
20260902094430 59 56 2.0 6.0 0.00 0.02 0.00 88 1009.8
20260902094015 58 291 1.0 6.0 0.00 0.02 0.00 88 1009.9
20260902093916 59 28 1.0 6.0 0.00 0.02 0.00 88 1009.9
20260902093521 58 84 1.0 7.0 0.00 0.02 0.00 88 1010.0
20260902093422 58 282 1.0 9.0 0.00 0.02 0.00 88 1010.0
20260902093024 58 78 2.0 9.0 0.00 0.02 0.00 88 1010.0
20260902092927 58 29 2.0 12.0 0.00 0.02 0.00 88 1010.1
20260902092531 58 314 2.0 12.0 0.00 0.02 0.00 88 1010.1
20260902092412 59 9 1.0 12.0 0.00 0.02 0.00 89 1010.2
20260902092015 58 68 3.0 12.0 0.00 0.02 0.00 89 1010.3
20260902091918 58 221 4.0 10.0 0.00 0.02 0.00 89 1010.3
20260902091521 58 101 4.0 8.0 0.00 0.02 0.00 89 1010.3
20260902091424 58 127 4.0 8.0 0.00 0.02 0.00 89 1010.3
20260902091023 58 51 3.0 9.0 0.00 0.02 0.00 90 1010.4
20260902090927 58 328 3.0 9.0 0.00 0.02 0.00 90 1010.4
20260902090524 58 188 4.0 9.0 0.00 0.02 0.00 90 1010.4
20260902090428 58 32 4.0 9.0 0.00 0.02 0.00 90 1010.5
20260902090016 58 72 2.0 14.0 0.00 0.02 0.00 90 1010.4
20260902085917 58 241 2.0 14.0 0.00 0.02 0.00 90 1010.5
20260902085551 58 81 3.0 14.0 0.00 0.02 0.00 90 1010.6
20260902085022 58 300 3.0 9.0 0.00 0.02 0.00 90 1010.7
20260902084924 58 275 3.0 9.0 0.00 0.02 0.00 90 1010.5
20260902084527 58 326 3.0 9.0 0.00 0.02 0.00 91 1010.7
20260902084429 58 68 2.0 9.0 0.00 0.02 0.00 91 1010.7
20260902084031 58 316 2.0 12.0 0.00 0.02 0.00 91 1010.7
20260902083913 58 24 4.0 12.0 0.00 0.02 0.00 91 1010.8
20260902083518 58 255 4.0 12.0 0.00 0.02 0.00 91 1010.8
20260902083419 58 293 2.0 12.0 0.00 0.02 0.00 91 1010.8
20260902083024 58 269 3.0 9.0 0.00 0.02 0.00 91 1010.8
20260902082926 58 84 4.0 9.0 0.00 0.02 0.00 91 1010.7
20260902082532 58 11 3.0 12.0 0.00 0.02 0.00 91 1010.9
20260902082415 58 139 3.0 12.0 0.00 0.02 0.00 91 1010.8
20260902082020 58 249 4.0 12.0 0.00 0.02 0.00 91 1010.8
20260902081922 58 323 5.0 12.0 0.00 0.02 0.00 92 1010.9
20260902081526 58 326 3.0 12.0 0.00 0.02 0.00 92 1010.9
20260902081429 58 127 2.0 12.0 0.00 0.02 0.00 91 1011.0
20260902081032 58 77 2.0 13.0 0.00 0.02 0.00 91 1011.0
20260902080912 58 126 3.0 13.0 0.00 0.02 0.00 91 1011.0
20260902080516 58 307 5.0 13.0 0.00 0.02 0.00 91 1010.9
20260902080415 58 274 3.0 12.0 0.00 0.02 0.00 91 1011.0
20260902080026 58 311 2.0 9.0 0.00 0.02 0.00 91 1011.1
20260902075932 58 55 3.0 9.0 0.00 0.02 0.00 91 1011.1
20260902075531 58 311 3.0 10.0 0.00 0.02 0.00 91 1011.3
20260902075418 58 55 2.0 10.0 0.00 0.02 0.00 91 1011.1
20260902075018 58 358 2.0 10.0 0.00 0.02 0.00 91 1011.1
20260902074921 58 122 3.0 10.0 0.00 0.02 0.00 91 1011.1
20260902074528 58 15 2.0 9.0 0.00 0.02 0.00 91 1011.1
20260902074431 58 17 3.0 9.0 0.00 0.02 0.00 91 1011.1
20260902074014 58 313 3.0 10.0 0.00 0.02 0.00 90 1011.2
20260902073917 58 51 2.0 10.0 0.00 0.02 0.00 90 1011.3
20260902073552 58 58 2.0 10.0 0.00 0.02 0.00 90 1011.1
20260902073051 58 270 1.0 8.0 0.00 0.02 0.00 90 1011.1
20260902072521 58 46 2.0 5.0 0.00 0.02 0.00 92 1011.2
20260902072423 58 57 1.0 6.0 0.00 0.02 0.00 92 1011.2
20260902072027 58 352 1.0 6.0 0.00 0.02 0.00 92 1011.2
20260902071929 58 80 1.0 6.0 0.00 0.02 0.00 92 1011.3
20260902071533 58 66 2.0 7.0 0.00 0.02 0.00 92 1011.3
20260902071415 58 94 1.0 7.0 0.00 0.02 0.00 92 1011.3
20260902071047 58 294 3.0 7.0 0.00 0.02 0.00 92 1011.4
20260902070519 58 300 3.0 10.0 0.00 0.02 0.00 92 1011.5
20260902070420 58 264 3.0 10.0 0.00 0.02 0.00 92 1011.6
20260902070014 58 278 2.0 10.0 0.00 0.02 0.02 92 1011.6
20260902065914 58 259 2.0 10.0 0.00 0.02 0.02 92 1011.6
20260902065521 58 304 2.0 10.0 0.00 0.02 0.02 92 1011.6
20260902065422 58 315 3.0 10.0 0.00 0.02 0.02 92 1011.6
20260902065029 58 248 4.0 12.0 0.00 0.02 0.02 92 1011.6
20260902064930 58 88 4.0 12.0 0.00 0.02 0.02 92 1011.6
20260902064516 58 195 3.0 12.0 0.00 0.02 0.02 92 1011.6
20260902064417 58 135 5.0 12.0 0.00 0.02 0.02 92 1011.6
20260902064021 58 86 3.0 10.0 0.00 0.02 0.02 91 1011.7
20260902063924 58 52 2.0 9.0 0.00 0.02 0.02 91 1011.7
20260902063532 58 236 3.0 11.0 0.00 0.02 0.02 91 1011.7
20260902063413 58 294 4.0 11.0 0.00 0.02 0.02 91 1011.7
20260902063019 58 78 3.0 11.0 0.00 0.02 0.02 91 1011.7
20260902062921 58 254 3.0 11.0 0.00 0.02 0.02 91 1011.7
20260902062529 58 78 2.0 12.0 0.00 0.02 0.02 91 1011.8
20260902062431 59 314 2.0 12.0 0.00 0.02 0.02 91 1011.7
20260902062017 59 86 4.0 12.0 0.00 0.02 0.02 91 1011.8
20260902061917 58 310 3.0 12.0 0.00 0.02 0.02 91 1011.8
20260902061547 58 117 3.0 11.0 0.00 0.02 0.02 91 1011.8
20260902061429 58 98 3.0 11.0 0.00 0.02 0.02 91 1011.8
20260902061015 58 220 2.0 7.0 0.00 0.02 0.02 91 1011.9
20260902060917 58 288 2.0 7.0 0.00 0.02 0.02 91 1011.8
20260902060525 58 295 2.0 8.0 0.00 0.02 0.02 91 1011.9
20260902060425 58 60 2.0 8.0 0.00 0.02 0.02 91 1012.0
20260902060017 58 20 2.0 8.0 0.00 0.02 0.02 91 1011.9
20260902055922 58 51 3.0 8.0 0.00 0.02 0.02 91 1011.9
20260902055526 58 294 1.0 9.0 0.00 0.02 0.02 91 1012.0
20260902055413 58 98 1.0 9.0 0.00 0.02 0.02 91 1012.1
20260902055015 58 70 3.0 9.0 0.00 0.02 0.02 91 1012.1
20260902054922 58 62 2.0 7.0 0.00 0.02 0.02 91 1012.1
20260902054525 58 323 3.0 7.0 0.00 0.02 0.02 92 1012.2
20260902054426 58 269 2.0 7.0 0.00 0.02 0.02 92 1012.1
20260902054030 58 56 1.0 7.0 0.00 0.02 0.02 92 1012.2
20260902053931 58 288 2.0 7.0 0.00 0.02 0.02 92 1012.2
20260902053517 58 23 2.0 7.0 0.00 0.02 0.02 93 1012.2
20260902053415 58 340 2.0 7.0 0.00 0.02 0.02 93 1012.2
20260902053022 58 293 1.0 5.0 0.00 0.02 0.02 93 1012.2
20260902052925 58 63 2.0 5.0 0.00 0.02 0.02 93 1012.1
20260902052529 58 63 2.0 4.0 0.00 0.02 0.02 93 1012.3
20260902052428 58 320 2.0 6.0 0.00 0.02 0.02 93 1012.2
20260902052032 58 259 1.0 6.0 0.00 0.02 0.02 93 1012.4
20260902051914 58 279 1.0 6.0 0.00 0.02 0.02 93 1012.4
20260902051522 58 53 2.0 6.0 0.00 0.02 0.02 93 1012.4
20260902051425 58 45 1.0 7.0 0.00 0.02 0.02 93 1012.4
20260902051028 58 309 1.0 7.0 0.00 0.02 0.02 93 1012.4
20260902050927 58 347 1.0 7.0 0.00 0.02 0.02 93 1012.4
20260902050533 58 313 1.0 5.0 0.01 0.02 0.02 93 1012.4
20260902050414 58 292 2.0 5.0 0.01 0.02 0.02 93 1012.4
20260902050024 58 286 2.0 5.0 0.01 0.02 0.02 93 1012.4
20260902045924 58 321 2.0 5.0 0.01 0.02 0.02 93 1012.3
20260902045529 58 304 2.0 5.0 0.01 0.02 0.02 93 1012.5
20260902045430 58 6 1.0 7.0 0.01 0.02 0.02 93 1012.4
20260902045018 58 15 2.0 7.0 0.02 0.02 0.02 93 1012.5
20260902044921 58 57 2.0 7.0 0.02 0.02 0.02 93 1012.5
20260902044526 58 273 2.0 8.0 0.02 0.02 0.02 93 1012.5
20260902044429 58 71 2.0 8.0 0.02 0.02 0.02 93 1012.6
20260902044033 58 305 2.0 9.0 0.02 0.02 0.02 94 1012.6
20260902043916 58 302 2.0 9.0 0.02 0.02 0.02 93 1012.6
20260902043523 58 111 3.0 9.0 0.02 0.02 0.02 93 1012.6
20260902043425 58 311 2.0 8.0 0.02 0.02 0.02 93 1012.6
20260902043028 58 222 2.0 8.0 0.02 0.02 0.02 94 1012.6
20260902042915 58 279 1.0 8.0 0.02 0.02 0.02 94 1012.6
20260902042517 58 302 3.0 8.0 0.02 0.02 0.02 94 1012.7
20260902042422 58 274 2.0 6.0 0.02 0.02 0.02 94 1012.7
20260902042024 58 69 1.0 6.0 0.02 0.02 0.02 94 1012.7
20260902041931 58 101 2.0 6.0 0.02 0.02 0.02 94 1012.7
20260902041533 58 83 2.0 6.0 0.02 0.02 0.02 94 1012.7
20260902041417 58 60 1.0 6.0 0.02 0.02 0.02 94 1012.6
20260902041017 58 301 3.0 10.0 0.02 0.02 0.02 93 1012.6
20260902040918 58 89 2.0 10.0 0.02 0.02 0.02 93 1012.6
20260902040525 58 231 3.0 10.0 0.01 0.01 0.01 93 1012.6
20260902040425 58 73 3.0 10.0 0.01 0.01 0.01 93 1012.6
20260902040020 58 36 2.0 8.0 0.01 0.01 0.01 93 1012.6
20260902035923 58 126 2.0 8.0 0.01 0.01 0.01 93 1012.6
20260902035531 58 80 3.0 8.0 0.01 0.01 0.01 93 1012.6
20260902035431 58 68 2.0 8.0 0.01 0.01 0.01 93 1012.7
20260902035017 58 208 2.0 6.0 0.00 0.00 0.00 93 1012.6
20260902034919 59 243 2.0 5.0 0.00 0.00 0.00 93 1012.6
20260902034527 59 326 1.0 6.0 0.00 0.00 0.00 92 1012.6
20260902034430 59 26 2.0 6.0 0.00 0.00 0.00 92 1012.6
20260902034017 59 336 2.0 6.0 0.00 0.00 0.00 92 1012.7
20260902033921 59 92 2.0 7.0 0.00 0.00 0.00 92 1012.7
20260902033529 59 280 2.0 9.0 0.00 0.00 0.00 92 1012.7
20260902033429 59 11 2.0 9.0 0.00 0.00 0.00 91 1012.7
20260902033027 59 296 3.0 9.0 0.00 0.00 0.00 91 1012.6
20260902013030 60 65 1.0 7.0 0.00 0.00 0.00 89 1012.4
20260902012929 60 79 1.0 7.0 0.00 0.00 0.00 89 1012.5
20260902012528 60 290 2.0 7.0 0.00 0.00 0.00 89 1012.4
20260902012430 60 255 2.0 7.0 0.00 0.00 0.00 89 1012.4
20260902012032 60 307 1.0 7.0 0.00 0.00 0.00 89 1012.5
20260902011914 60 158 1.0 7.0 0.00 0.00 0.00 89 1012.4
20260902011516 60 41 2.0 7.0 0.00 0.00 0.00 89 1012.4
20260902011417 60 51 2.0 7.0 0.00 0.00 0.00 89 1012.4
20260902011021 60 60 1.0 9.0 0.00 0.00 0.00 89 1012.4
20260902010920 60 290 2.0 9.0 0.00 0.00 0.00 89 1012.4
20260902010523 61 114 3.0 9.0 0.00 0.00 0.00 88 1012.5
20260902010423 61 335 2.0 9.0 0.00 0.00 0.00 88 1012.4
20260902010028 61 290 3.0 7.0 0.00 0.00 0.00 87 1012.4
20260902005914 62 292 2.0 7.0 0.00 0.00 0.00 87 1012.3
20260902005514 62 240 3.0 6.0 0.00 0.00 0.00 87 1012.4
20260902005418 62 123 2.0 6.0 0.00 0.00 0.00 87 1012.4
20260902005014 62 112 2.0 6.0 0.00 0.00 0.00 87 1012.4
20260902004918 62 271 2.0 6.0 0.00 0.00 0.00 87 1012.4
20260902004516 62 101 1.0 6.0 0.00 0.00 0.00 88 1012.4
20260902004417 61 132 1.0 5.0 0.00 0.00 0.00 88 1012.4
20260902004019 61 284 1.0 6.0 0.00 0.00 0.00 89 1012.4
20260902003917 61 283 1.0 6.0 0.00 0.00 0.00 88 1012.4
20260902003522 61 115 2.0 6.0 0.00 0.00 0.00 89 1012.4
20260902003418 61 189 1.0 6.0 0.00 0.00 0.00 89 1012.4
20260902003020 61 66 3.0 6.0 0.00 0.00 0.00 88 1012.5
20260902002921 61 281 3.0 6.0 0.00 0.00 0.00 88 1012.4
20260902002524 61 341 3.0 6.0 0.00 0.00 0.00 88 1012.5
20260902002423 61 275 2.0 6.0 0.00 0.00 0.00 88 1012.6
20260902002024 61 84 2.0 7.0 0.00 0.00 0.00 88 1012.4
20260902001925 61 108 2.0 7.0 0.00 0.00 0.00 88 1012.5
20260902001527 61 58 2.0 8.0 0.00 0.00 0.00 88 1012.6
20260902001429 61 285 2.0 8.0 0.00 0.00 0.00 88 1012.5
20260902001028 61 158 3.0 8.0 0.00 0.00 0.00 88 1012.6
20260902000927 61 270 3.0 8.0 0.00 0.00 0.00 88 1012.6
20260902000528 61 38 2.0 7.0 0.00 0.00 0.00 88 1012.6
20260902000426 61 87 1.0 7.0 0.00 0.00 0.00 88 1012.6
20260902000018 61 97 1.0 6.0 0.00 0.00 0.00 89 1012.6
20260901235919 61 351 1.0 8.0 0.00 0.00 0.00 89 1012.6
20260901235516 61 66 2.0 8.0 0.00 0.00 0.00 89 1012.7
20260901235415 61 334 2.0 8.0 0.00 0.00 0.00 89 1012.7
20260901235014 61 258 1.0 6.0 0.00 0.00 0.00 89 1012.6
20260901234919 61 264 2.0 8.0 0.00 0.00 0.00 89 1012.6